GFSGL_con_mlcape_000.txt.gz
CAPE
381 500 151 0 0 132 135 105 100 222 249 283 278 243 257 206 254 116 84 240 97 188 282 135 107 0 0 0 0 0 0 1 19 3 4 161 263 155 76 300 103 85 268
486 467 276 115 26 20 60 93 84 95 92 83 154 236 359 385 315 119 172 276 250 278 314 203 129 8 0 0 0 0 0 0 3 34 3 105 236 225 87 99 101 28 60
434 310 194 175 205 251 255 270 181 136 84 240 335 239 286 375 381 396 363 275 416 511 433 227 244 39 0 0 0 0 0 2 0 4 16 89 179 237 132 173 89 62 48
258 356 331 339 385 399 377 474 236 340 411 453 308 253 182 339 380 433 344 369 409 511 453 325 288 215 1 0 0 0 0 0 0 0 3 5 182 191 194 76 180 271 217
126 178 224 296 429 557 566 440 375 369 488 403 201 333 562 546 385 329 303 281 399 381 501 392 309 281 97 14 2 0 0 0 0 2 3 3 1 172 221 96 78 205 298
345 332 317 385 458 536 714 787 597 623 515 340 311 407 241 418 72 80 74 146 193 132 113 374 304 202 211 131 20 30 2 3 0 2 3 3 1 0 162 141 86 131 181
458 432 420 455 498 642 732 648 549 439 423 431 390 496 372 352 302 99 69 87 143 271 267 359 200 247 95 52 41 46 23 0 0 4 14 9 5 3 9 170 68 75 150
720 747 714 725 757 881 877 676 605 577 559 340 424 466 370 287 167 41 92 167 244 336 448 338 212 147 221 142 29 15 18 0 9 11 13 9 9 7 0 67 152 33 256
839 842 953 918 952 1023 1029 806 721 695 433 618 526 421 371 285 254 79 56 211 331 237 379 317 386 129 124 45 14 2 0 1 2 0 3 2 3 5 0 3 38 65 66
829 1041 1145 1128 1202 1187 1095 873 825 720 465 46 414 601 467 453 129 103 12 0 0 68 177 323 218 41 17 0 2 11 17 17 1 2 1 2 0 1 0 0 0 159 0
1032 1146 1137 1292 1336 1229 1136 936 889 538 50 478 590 453 496 339 72 1 12 32 11 108 44 49 99 9 0 0 0 12 0 2 13 7 5 3 3 0 0 0 1 292 51
1202 1119 1242 1328 1169 986 892 685 729 576 655 602 411 393 172 136 54 45 52 17 0 0 0 46 26 0 0 0 0 0 0 3 4 6 11 4 3 3 1 53 9 95 184
1554 1455 1296 1113 899 1011 672 499 1046 798 582 425 308 249 169 18 52 19 0 0 0 0 0 4 0 0 0 0 0 0 0 0 1 4 21 19 3 3 2 213 242 83 74
2156 2065 1733 1356 1299 1057 732 857 723 608 385 302 143 79 84 63 3 0 0 0 0 0 0 0 6 0 0 0 0 1 4 1 2 11 22 26 10 2 5 1 231 265 180
2396 2038 1646 1471 1000 746 126 53 226 0 0 10 0 0 0 0 0 0 0 0 0 0 0 0 14 0 0 0 0 1 3 3 2 0 7 25 10 1 2 3 3 2 186
1290 1125 953 734 300 329 142 0 0 0 0 0 0 0 0 0 0 0 0 0 0 0 0 0 0 0 0 0 0 0 0 0 1 0 3 1 42 11 1 1 2 2 3
786 701 324 76 177 310 387 485 315 0 0 0 0 0 0 0 0 0 0 0 0 0 0 0 0 0 0 0 0 0 0 0 0 0 0 0 3 31 19 4 1 2 1
506 177 124 93 380 573 548 377 257 306 31 0 0 0 0 0 0 0 0 0 0 0 0 0 0 0 0 0 0 0 0 0 0 0 0 0 0 2 44 64 35 2 0
265 304 318 474 337 228 101 39 23 0 0 1 1 0 0 0 0 0 0 0 0 0 0 0 0 0 0 0 0 0 0 0 0 0 0 0 0 0 0 22 31 3 3
286 18 186 343 51 148 28 8 0 0 0 1 0 0 0 0 0 0 0 0 0 0 0 0 0 0 0 0 0 0 0 0 0 0 0 0 0 0 0 0 1 4 7
175 81 21 288 100 11 0 0 0 1 1 0 0 0 0 0 0 0 0 0 0 0 0 0 0 0 0 0 0 0 0 0 0 0 0 0 0 0 0 0 0 0 0
72 79 81 228 32 22 24 16 1 0 0 0 0 0 0 0 0 0 0 0 0 0 0 0 0 0 0 0 0 0 0 0 0 0 0 0 0 0 0 0 0 0 0
60 64 40 1 0 0 0 1 5 3 5 0 0 0 0 0 0 0 0 0 0 0 0 0 0 0 0 0 0 0 0 0 0 0 0 0 0 0 0 0 0 0 0
0 0 0 0 0 0 0 0 0 0 0 0 0 0 0 0 0 0 0 0 0 0 0 0 0 0 0 0 0 0 0 0 0 0 0 0 0 0 0 0 0 0 0
0 0 5 4 5 0 0 0 0 0 0 0 0 0 0 0 0 0 0 0 0 0 0 0 0 0 0 0 0 0 0 0 0 0 0 0 0 0 0 0 0 0 0
0 0 0 0 0 0 0 0 0 0 0 0 0 0 0 0 0 0 0 0 0 0 0 0 0 0 0 0 0 0 0 0 0 0 0 0 0 0 0 0 0 0 0

GFSGL_con_mlcape_003.txt.gz
CAPE
551 376 440 431 88 76 101 12 9 71 175 153 131 95 91 112 256 329 178 118 124 155 164 82 76 0 0 0 0 0 0 0 0 0 0 0 2 15 9 207 190 55 67
548 463 237 1 7 18 30 16 12 0 0 0 0 0 94 168 237 368 261 102 231 95 68 35 103 95 16 0 0 0 0 0 0 0 0 0 0 0 7 74 93 110 26
304 471 170 79 35 24 33 41 51 36 12 0 8 146 43 49 64 105 351 224 128 149 110 184 189 116 54 3 0 0 0 0 0 0 0 0 0 0 0 76 93 82 74
352 295 236 140 77 97 109 141 179 126 48 126 320 55 50 64 140 262 362 251 174 72 108 336 254 186 124 103 16 0 0 0 0 0 0 0 2 0 0 0 34 133 75
313 293 235 181 206 276 276 243 372 130 168 184 198 156 65 232 383 158 61 45 39 108 166 191 318 282 285 113 63 5 1 0 0 0 0 2 3 0 1 2 3 121 145
208 219 365 328 310 282 265 236 297 225 197 488 132 81 128 313 96 62 31 9 13 34 61 89 192 181 151 107 62 71 65 14 2 4 0 4 2 15 1 1 4 9 80
154 227 278 269 254 288 359 411 582 586 572 138 124 322 119 262 331 78 64 6 15 39 105 166 132 211 185 96 29 21 82 57 49 12 18 31 20 10 15 10 10 4 4
141 291 363 366 411 388 447 552 607 605 393 295 311 186 237 485 329 88 37 22 27 66 111 142 199 145 156 75 15 7 0 11 10 38 34 8 4 11 12 15 10 5 4
174 211 440 412 388 453 625 784 883 790 567 494 459 235 364 345 236 59 38 2 3 0 0 29 143 127 10 0 0 0 0 0 2 13 5 6 4 4 3 4 11 6 4
264 516 627 656 673 816 996 1096 998 857 729 632 264 38 419 208 84 38 0 1 0 4 31 40 0 0 0 0 0 0 0 0 0 3 3 4 7 12 1 1 4 4 3
667 700 903 938 990 1072 1223 1265 1026 841 455 226 155 293 266 126 104 0 1 8 2 11 3 0 0 0 0 0 0 0 0 0 0 2 5 4 18 12 6 1 3 4 5
725 942 1222 1222 1337 1407 1189 977 685 532 215 75 239 212 168 19 0 5 3 14 12 0 0 0 0 0 0 0 0 0 0 0 0 7 10 13 20 12 2 3 2 2 2
860 1424 1507 1628 1551 1143 799 523 322 80 101 196 205 179 56 0 0 0 0 0 0 0 0 0 0 0 0 0 0 0 0 2 2 0 8 16 10 14 6 2 3 0 0
5 0 66 995 853 719 371 284 249 80 0 116 41 3 0 0 0 0 0 0 0 0 0 0 0 0 0 0 0 0 0 0 3 1 3 2 2 11 6 4 4 2 59
0 2 0 454 781 248 36 94 128 0 0 0 0 0 0 0 0 0 0 0 0 0 0 0 0 0 0 0 0 0 0 0 0 0 3 2 3 1 24 2 3 3 2
102 182 676 658 268 7 0 0 0 0 0 0 0 0 0 0 0 0 0 0 0 0 0 0 0 0 0 0 0 0 0 0 0 0 1 2 3 1 1 6 2 3 3
721 400 183 116 30 33 0 0 0 0 0 0 0 0 0 0 0 0 0 0 0 0 0 0 0 0 0 0 0 0 0 0 0 0 0 0 3 4 0 1 2 2 2
392 242 71 4 73 203 271 242 46 0 0 0 0 0 0 0 0 0 0 0 0 0 0 0 0 0 0 0 0 0 0 0 0 0 0 0 0 2 0 2 1 4 4
377 297 152 209 215 138 45 0 0 0 0 0 0 0 0 0 0 0 0 0 0 0 0 0 0 0 0 0 0 0 0 0 0 0 0 0 0 0 0 0 2 0 0
218 24 63 234 130 51 5 0 0 0 0 0 0 0 0 0 0 0 0 0 0 0 0 0 0 0 0 0 0 0 0 0 0 0 0 0 0 0 0 0 0 0 0
258 41 15 141 121 9 1 0 0 0 0 0 0 0 0 0 0 0 0 0 0 0 0 0 0 0 0 0 0 0 0 0 0 0 0 0 0 0 0 0 0 0 0
115 93 119 205 39 0 1 2 0 0 0 0 0 0 0 0 0 0 0 0 0 0 0 0 0 0 0 0 0 0 0 0 0 0 0 0 0 0 0 0 0 0 0
101 102 22 18 18 0 16 19 5 5 0 0 0 0 0 0 0 0 0 0 0 0 0 0 0 0 0 0 0 0 0 0 0 0 0 0 0 0 0 0 0 0 0
0 0 0 0 0 0 0 0 0 2 0 0 0 0 0 0 0 0 0 0 0 0 0 0 0 0 0 0 0 0 0 0 0 0 0 0 0 0 0 0 0 0 0
0 0 0 0 0 0 0 0 0 0 0 0 0 0 0 0 0 0 0 0 0 0 0 0 0 0 0 0 0 0 0 0 0 0 0 0 0 0 0 0 0 0 0
0 0 0 0 0 0 0 0 0 0 0 0 0 0 0 0 0 0 0 0 0 0 0 0 0 0 0 0 0 0 0 0 0 0 0 0 0 0 0 0 0 0 0

GFSGL_con_mlcape_006.txt.gz
CAPE
159 0 0 62 56 10 0 0 0 0 6 71 63 20 0 0 11 85 52 97 26 19 86 63 44 26 2 0 0 0 0 0 0 0 0 0 0 0 0 0 0 4 20
189 0 40 248 230 100 47 14 0 17 12 0 0 0 0 11 1 15 56 111 122 59 50 30 16 23 25 17 0 0 0 0 0 0 0 0 0 0 0 0 0 0 19
395 173 134 265 270 42 28 34 14 9 3 0 0 0 2 16 0 1 0 41 152 84 75 54 44 64 53 47 5 0 0 0 0 0 0 0 0 0 0 0 0 0 0
464 217 178 150 2 16 31 38 13 9 5 2 0 2 78 0 0 40 91 173 161 57 32 29 49 147 120 69 40 30 7 0 0 0 0 0 0 0 0 2 0 0 0
511 323 272 86 56 14 15 12 2 12 43 25 42 106 66 15 5 181 142 39 32 18 26 63 75 70 74 88 80 29 0 0 0 0 0 0 0 0 0 4 2 3 0
446 327 217 175 147 56 84 53 47 33 157 91 109 183 170 33 93 110 37 26 17 0 0 0 28 86 108 123 111 99 52 11 1 15 0 0 0 2 18 10 9 8 4
533 289 180 182 121 174 187 186 134 58 155 237 242 303 62 108 80 138 77 28 13 9 4 7 11 20 67 95 72 34 32 27 32 1 0 2 8 13 28 13 13 8 6
378 280 290 260 169 262 280 234 219 247 346 503 491 211 206 132 152 279 73 16 7 4 7 3 0 9 33 34 3 0 0 0 0 0 0 2 0 7 15 17 9 14 4
295 274 299 398 364 346 367 251 335 454 551 538 405 260 231 244 63 180 58 4 1 0 0 9 1 0 0 0 0 0 0 0 0 0 0 0 2 1 12 8 24 9 3
262 294 311 341 347 377 381 368 529 631 592 482 307 195 23 48 118 9 7 0 0 5 7 0 0 0 0 0 0 0 0 0 0 0 0 0 0 3 0 12 4 4 2
301 184 191 481 447 450 495 689 721 662 305 100 36 21 56 46 18 0 0 1 11 2 0 0 0 0 0 0 0 0 0 1 0 0 0 0 1 1 2 12 6 4 2
43 32 32 41 327 757 833 993 464 323 218 42 9 0 20 0 0 0 0 2 0 0 0 0 0 0 0 0 0 0 0 0 0 1 0 0 1 1 1 4 7 2 1
0 11 0 0 0 0 348 664 443 118 49 0 0 29 7 0 0 0 0 0 0 0 0 0 0 0 0 0 0 0 0 0 2 0 0 1 2 1 1 3 7 2 2
0 0 0 0 0 53 331 374 261 155 31 0 0 0 0 0 0 0 0 0 0 0 0 0 0 0 0 0 0 0 0 0 0 1 3 3 3 0 0 1 6 2 3
0 0 0 0 2 17 15 54 102 0 0 0 0 0 0 0 0 0 0 0 0 0 0 0 0 0 0 0 0 0 0 0 0 0 2 2 0 0 1 1 2 4 3
0 0 0 0 54 31 23 0 0 0 0 0 0 0 0 0 0 0 0 0 0 0 0 0 0 0 0 0 0 0 0 0 0 0 0 0 0 3 0 1 2 2 2
0 0 25 74 101 1 0 0 0 0 0 0 0 0 0 0 0 0 0 0 0 0 0 0 0 0 0 0 0 0 0 0 0 0 0 0 0 0 0 2 2 1 1
43 108 70 5 9 0 0 0 0 0 0 0 0 0 0 0 0 0 0 0 0 0 0 0 0 0 0 0 0 0 0 0 0 0 0 0 0 0 0 1 2 1 0
58 63 88 94 39 41 33 9 1 0 0 0 0 0 0 0 0 0 0 0 0 0 0 0 0 0 0 0 0 0 0 0 0 0 0 0 0 0 0 0 0 0 0
0 20 121 130 65 3 0 2 4 0 0 0 0 0 0 0 0 0 0 0 0 0 0 0 0 0 0 0 0 0 0 0 0 0 0 0 0 0 0 0 0 0 0
17 3 15 28 16 0 2 0 0 0 0 0 0 0 0 0 0 0 0 0 0 0 0 0 0 0 0 0 0 0 0 0 0 0 0 0 0 0 0 0 0 0 0
25 19 41 52 28 12 0 0 0 0 0 0 0 0 0 0 0 0 0 0 0 0 0 0 0 0 0 0 0 0 0 0 0 0 0 0 0 0 0 0 0 0 0
38 20 54 18 2 0 0 0 4 4 0 0 0 0 0 0 0 0 0 0 0 0 0 0 0 0 0 0 0 0 0 0 0 0 0 0 0 0 0 0 0 0 0
0 0 0 0 0 0 0 0 0 1 0 0 0 0 0 0 0 0 0 0 0 0 0 0 0 0 0 0 0 0 0 0 0 0 0 0 0 0 0 0 0 0 0
0 0 0 0 0 0 0 0 0 0 0 0 0 0 0 0 0 0 0 0 0 0 0 0 0 0 0 0 0 0 0 0 0 0 0 0 0 0 0 0 0 0 0
0 0 0 0 0 0 0 0 0 0 0 0 0 0 0 0 0 0 0 0 0 0 0 0 0 0 0 0 0 0 0 0 0 0 0 0 0 0 0 0 0 0 0

GFSGL_con_mlcape_009.txt.gz
CAPE
597 325 25 0 0 0 0 11 11 0 0 0 0 0 0 0 0 0 0 0 0 0 1 0 21 16 12 0 0 0 0 0 0 0 0 0 0 0 0 0 0 0 0
655 473 105 0 0 0 0 0 0 0 0 0 14 17 0 0 0 0 0 0 0 0 31 17 0 0 0 12 0 0 0 0 0 0 0 0 0 0 0 0 0 0 0
617 558 132 0 7 13 7 0 0 0 0 9 3 0 0 0 0 0 0 0 0 11 46 34 17 19 0 4 25 23 2 0 0 0 0 0 0 0 0 0 0 0 0
702 654 312 2 0 92 100 54 16 8 3 5 4 0 0 0 0 0 0 10 39 54 34 43 22 19 0 5 1 11 0 0 0 0 0 0 0 0 0 0 0 0 0
880 747 530 60 21 188 201 91 40 37 28 16 10 6 0 16 90 24 22 107 79 29 18 8 5 24 27 21 8 17 18 18 15 0 0 0 0 0 0 0 0 0 0
976 951 248 47 4 143 122 25 6 34 61 6 35 74 46 146 183 64 109 94 50 28 17 4 0 3 4 20 62 126 59 23 7 0 0 0 0 0 0 0 0 3 3
1025 645 272 230 27 77 1 9 11 8 60 21 83 229 220 195 119 50 89 35 18 12 0 0 0 0 4 7 21 39 51 53 40 1 0 0 0 0 0 0 2 6 5
883 456 226 141 171 81 39 118 114 127 79 141 157 288 291 196 102 14 25 71 30 0 0 0 0 0 0 5 36 2 0 0 0 0 0 0 0 0 0 0 6 5 5
882 412 354 159 164 75 169 220 261 260 297 367 317 309 221 210 120 7 13 42 20 0 0 0 0 0 0 1 0 0 0 0 0 0 0 0 0 0 0 2 7 5 4
743 502 327 300 279 212 267 292 335 380 407 378 396 324 257 134 18 29 0 3 0 0 0 0 0 0 0 0 0 0 0 0 0 0 0 0 0 0 0 1 3 4 7
315 252 304 293 308 319 278 237 199 284 303 269 249 213 132 5 1 0 0 0 0 0 0 0 0 0 0 0 0 0 0 0 0 0 0 1 0 0 0 0 1 2 3
191 80 23 30 26 40 39 0 0 7 60 146 130 81 40 0 0 0 0 0 0 0 0 0 0 0 0 0 0 0 0 0 0 0 0 0 0 0 0 1 0 3 4
79 20 0 0 0 0 0 0 0 0 60 148 40 31 0 0 0 0 0 0 0 0 0 0 0 0 0 0 0 0 0 0 0 0 0 1 3 4 0 1 0 2 3
0 0 0 0 0 0 1 0 0 21 60 14 21 15 0 0 0 0 0 0 0 0 0 0 0 0 0 0 0 0 0 0 0 0 0 0 1 2 0 2 0 2 3
0 0 0 0 1 0 0 0 19 0 0 3 0 0 0 0 0 0 0 0 0 0 0 0 0 0 0 0 0 0 0 0 0 0 0 0 0 0 1 1 1 0 3
0 0 0 0 0 0 0 0 0 0 0 0 0 0 0 0 0 0 0 0 0 0 0 0 0 0 0 0 0 0 0 0 0 0 0 0 0 0 0 0 0 1 2
0 0 0 0 0 0 0 0 0 0 0 0 0 0 0 0 0 0 0 0 0 0 0 0 0 0 0 0 0 0 0 0 0 0 0 0 0 0 0 0 2 0 0
0 0 0 13 4 0 0 0 0 0 0 0 0 0 0 0 0 0 0 0 0 0 0 0 0 0 0 0 0 0 0 0 0 0 0 0 0 0 0 0 1 1 0
32 67 35 48 70 9 0 0 0 0 0 0 0 0 0 0 0 0 0 0 0 0 0 0 0 0 0 0 0 0 0 0 0 0 0 0 0 0 0 0 0 0 0
30 18 2 3 7 0 0 0 0 0 0 0 0 0 0 0 0 0 0 0 0 0 0 0 0 0 0 0 0 0 0 0 0 0 0 0 0 0 0 0 0 0 0
0 0 0 32 41 0 5 12 2 0 0 0 0 0 0 0 0 0 0 0 0 0 0 0 0 0 0 0 0 0 0 0 0 0 0 0 0 0 0 0 0 0 0
1 7 6 12 15 11 3 0 0 0 0 0 0 0 0 0 0 0 0 0 0 0 0 0 0 0 0 0 0 0 0 0 0 0 0 0 0 0 0 0 0 0 0
0 1 5 6 0 0 0 0 0 0 0 0 0 0 0 0 0 0 0 0 0 0 0 0 0 0 0 0 0 0 0 0 0 0 0 0 0 0 0 0 0 0 0
0 0 0 0 0 0 0 0 0 0 0 0 0 0 0 0 0 0 0 0 0 0 0 0 0 0 0 0 0 0 0 0 0 0 0 0 0 0 0 0 0 0 0
0 0 0 0 0 0 0 0 0 0 0 0 0 0 0 0 0 0 0 0 0 0 0 0 0 0 0 0 0 0 0 0 0 0 0 0 0 0 0 0 0 0 0
0 0 0 0 0 0 0 0 0 0 0 0 0 0 0 0 0 0 0 0 0 0 0 0 0 0 0 0 0 0 0 0 0 0 0 0 0 0 0 0 0 0 0

GFSGL_con_mlcape_012.txt.gz
CAPE
828 683 465 351 6 0 0 0 0 0 0 0 0 0 0 0 0 0 0 0 0 0 0 0 0 0 0 0 0 0 0 0 0 0 0 0 0 0 0 0 0 0 0
893 570 393 255 12 0 0 0 0 0 0 0 0 0 0 13 0 0 0 0 0 0 0 0 0 2 0 8 4 0 0 0 0 0 0 0 0 0 0 0 0 0 0
970 490 357 225 56 2 0 0 0 1 0 0 0 0 0 1 0 0 0 0 0 0 2 19 21 20 0 0 0 0 0 7 0 0 0 0 0 0 0 0 0 0 0
880 584 466 346 226 44 0 1 0 0 0 0 0 0 0 0 0 0 0 0 0 2 25 2 0 0 0 0 0 0 0 0 9 2 0 0 1 0 0 0 0 0 0
863 621 585 388 68 34 6 1 5 3 6 2 7 33 0 0 0 0 16 19 0 30 26 6 0 0 0 0 0 0 0 0 10 6 0 0 0 0 0 0 0 0 0
947 750 482 159 46 7 0 1 54 80 34 16 6 18 19 21 35 50 96 65 12 45 8 0 0 0 0 0 11 26 28 11 21 14 0 0 0 0 0 0 0 0 0
1042 806 418 115 65 0 6 0 84 94 0 24 17 66 60 94 131 123 95 43 10 11 0 0 0 0 0 0 0 0 22 28 36 7 0 0 0 0 0 1 1 1 2
1049 921 476 182 86 3 3 0 0 13 0 34 60 132 128 172 193 129 66 6 0 0 0 0 0 0 0 0 0 0 0 0 0 0 0 0 0 0 3 3 2 2 2
984 847 607 327 185 86 71 0 3 32 24 113 149 201 192 154 179 116 50 3 12 5 0 0 0 0 0 0 0 0 0 0 0 0 0 0 0 0 0 3 0 2 5
849 702 563 464 402 276 38 22 18 27 51 83 121 91 38 35 111 91 0 22 20 0 0 0 0 0 0 0 0 0 0 0 0 0 0 0 1 1 0 2 1 3 4
594 433 397 352 312 221 58 78 80 80 94 81 0 0 6 67 59 0 0 5 0 0 0 0 0 0 0 0 0 0 0 0 0 0 0 0 1 0 0 0 0 2 3
359 282 222 149 91 10 4 0 2 2 5 0 0 0 1 0 0 0 0 0 0 0 0 0 0 0 0 0 0 0 0 0 0 0 0 0 0 0 0 1 0 2 2
125 42 22 14 21 25 2 0 0 0 0 1 0 8 42 0 0 0 0 0 0 0 0 0 0 0 0 0 0 0 0 0 0 0 0 0 0 0 0 0 1 2 2
11 2 0 4 0 0 0 0 0 0 0 0 9 45 9 0 0 0 0 0 0 0 0 0 0 0 0 0 0 0 0 0 0 0 0 0 0 0 0 0 4 4 2
41 4 12 5 0 0 0 0 0 0 0 0 21 6 1 0 0 0 0 0 0 0 0 0 0 0 0 0 0 0 0 0 0 0 0 0 0 0 0 0 1 4 2
0 0 0 0 0 0 0 0 0 0 0 0 0 0 0 0 0 0 0 0 0 0 0 0 0 0 0 0 0 0 0 0 0 0 0 0 0 0 0 0 0 2 1
0 19 0 0 0 0 0 0 0 0 0 0 0 0 0 0 0 0 0 0 0 0 0 0 0 0 0 0 0 0 0 0 0 0 0 0 0 0 0 0 0 2 0
14 0 0 0 0 0 0 0 0 0 0 0 0 0 0 0 0 0 0 0 0 0 0 0 0 0 0 0 0 0 0 0 0 0 0 0 0 0 0 0 0 1 1
0 0 0 0 0 0 0 0 0 0 0 0 0 0 0 0 0 0 0 0 0 0 0 0 0 0 0 0 0 0 0 0 0 0 0 0 0 0 0 0 0 0 0
12 18 19 6 0 0 0 0 0 0 0 0 0 0 0 0 0 0 0 0 0 0 0 0 0 0 0 0 0 0 0 0 0 0 0 0 0 0 0 0 0 0 0
0 0 0 0 0 0 0 0 0 0 0 0 0 0 0 0 0 0 0 0 0 0 0 0 0 0 0 0 0 0 0 0 0 0 0 0 0 0 0 0 0 0 0
0 0 2 30 0 0 3 3 3 0 0 0 0 0 0 0 0 0 0 0 0 0 0 0 0 0 0 0 0 0 0 0 0 0 0 0 0 0 0 0 0 0 0
45 41 18 0 0 0 0 0 0 0 0 0 0 0 0 0 0 0 0 0 0 0 0 0 0 0 0 0 0 0 0 0 0 0 0 0 0 0 0 0 0 0 0
22 22 24 3 0 0 1 3 0 0 0 0 0 0 0 0 0 0 0 0 0 0 0 0 0 0 0 0 0 0 0 0 0 0 0 0 0 0 0 0 0 0 0
0 0 0 0 0 6 8 5 3 1 0 0 0 0 0 0 0 0 0 0 0 0 0 0 0 0 0 0 0 0 0 0 0 0 0 0 0 0 0 0 0 0 0
0 0 0 0 0 1 6 10 5 0 0 0 0 0 0 0 0 0 0 0 0 0 0 0 0 0 0 0 0 0 0 0 0 0 0 0 0 0 0 0 0 0 0

GFSGL_con_mlcape_015.txt.gz
CAPE
873 1054 1187 1234 1133 744 547 217 17 26 34 38 46 30 39 17 1 8 26 19 3 90 164 64 129 213 117 102 116 54 28 12 5 0 0 0 0 0 0 0 0 0 0
1028 1075 1166 869 621 659 343 7 2 4 0 23 36 34 51 33 62 51 68 18 66 46 107 213 153 235 133 122 103 82 71 75 49 10 0 0 7 0 2 1 4 0 0
1376 1269 1092 690 551 389 492 22 65 19 53 85 23 20 8 29 118 172 67 73 143 54 84 138 172 216 143 105 91 56 50 60 71 39 12 1 11 8 3 10 15 0 0
1500 1563 1163 663 559 525 14 4 0 17 3 76 11 0 14 53 117 85 16 74 194 181 108 221 130 143 121 45 61 57 75 68 46 72 21 9 11 7 9 24 15 9 6
1650 1713 1280 834 474 149 60 0 0 0 0 0 1 0 0 1 29 12 52 215 424 328 291 278 289 147 53 30 32 23 35 47 34 35 47 35 14 18 10 19 16 17 5
1735 1685 1345 876 405 188 49 0 0 0 0 26 0 0 2 6 23 0 67 319 469 378 249 228 119 58 7 0 0 0 0 7 22 41 55 37 35 9 14 15 8 0 1
1684 1654 1277 839 415 290 101 0 0 0 0 0 0 42 107 121 43 31 84 223 276 355 334 106 66 71 2 21 0 0 3 0 1 32 24 12 22 7 10 6 2 3 3
1579 1546 1221 702 572 320 182 4 0 0 0 0 0 63 4 182 127 98 97 109 205 143 81 101 109 84 70 0 0 0 8 9 0 0 0 0 0 0 0 4 3 1 2
1479 1491 1075 726 680 425 276 25 0 0 1 101 43 24 32 240 90 106 37 60 194 191 158 107 64 44 0 0 0 0 0 0 0 0 0 0 0 0 0 4 1 4 3
1288 1367 1077 849 739 560 256 71 55 37 43 47 105 123 167 232 87 44 29 80 174 86 99 54 0 0 0 0 0 0 0 0 0 0 0 0 0 0 0 2 4 2 0
1310 1356 1093 849 669 348 229 167 197 117 32 18 128 151 296 110 64 14 26 107 94 91 91 30 0 0 0 0 0 0 0 0 0 0 0 0 0 0 0 0 1 5 2
1003 1011 864 815 620 390 289 239 213 112 156 155 211 230 89 85 0 5 23 8 17 43 57 14 0 0 0 0 0 0 0 0 0 0 0 0 0 0 0 0 0 0 1
817 750 727 704 681 607 620 560 349 273 113 97 37 4 12 11 30 0 0 0 0 0 0 0 0 0 0 0 0 0 0 0 0 0 0 0 0 0 0 0 0 0 0
714 671 671 655 559 471 358 261 102 12 0 0 0 3 84 42 6 0 0 0 0 0 0 0 0 0 0 0 0 0 0 0 0 0 0 0 0 0 0 0 0 0 1
609 506 575 618 429 22 0 1 0 0 0 0 23 127 172 95 4 0 0 0 0 0 0 0 0 0 0 0 0 0 0 0 0 0 0 0 0 0 0 0 0 0 2
298 199 138 5 0 0 0 0 0 0 0 0 0 7 0 0 0 0 0 0 0 0 0 0 0 0 0 0 0 0 0 0 0 0 0 0 0 0 0 0 0 0 2
321 246 16 0 0 0 0 0 0 0 0 0 0 0 0 0 0 0 0 0 0 0 0 0 0 0 0 0 0 0 0 0 0 0 0 0 0 0 0 0 0 0 0
249 6 131 2 0 0 0 0 0 0 0 0 0 0 0 0 0 0 0 0 0 0 0 0 0 0 0 0 0 0 0 0 0 0 0 0 0 0 0 0 0 0 0
7 0 0 0 2 9 0 0 0 0 0 0 0 0 0 0 0 0 0 0 0 0 0 0 0 0 0 0 0 0 0 0 0 0 0 0 0 0 0 0 0 0 0
0 0 0 56 53 54 36 40 32 19 0 0 0 0 0 0 0 0 0 0 0 0 0 0 0 0 0 0 0 0 0 0 0 0 0 0 0 0 0 0 0 0 0
145 164 83 134 102 77 93 82 66 12 0 0 0 0 0 0 0 0 0 0 0 0 0 0 0 0 0 0 0 0 0 0 0 0 0 0 0 0 0 0 0 0 0
41 51 88 174 149 112 125 66 85 98 41 19 10 0 0 0 0 0 0 0 0 0 0 0 0 0 0 0 0 0 0 0 0 0 0 0 0 0 0 0 0 0 0
35 67 157 203 246 101 67 138 121 65 40 38 12 0 0 0 0 0 0 0 0 0 0 0 0 0 0 0 0 0 0 0 0 0 0 0 0 0 0 0 0 0 0
147 179 184 172 141 189 218 201 107 24 38 20 0 0 0 0 0 0 0 0 0 0 0 0 0 0 0 0 0 0 0 0 0 0 0 0 0 0 0 0 0 0 0
40 89 113 129 127 87 46 52 31 34 28 29 16 7 7 7 0 0 0 0 0 0 0 0 0 0 0 0 0 0 0 0 0 0 0 0 0 0 0 0 0 0 0
0 1 0 0 0 5 16 23 28 32 24 22 19 11 3 6 15 9 0 0 0 0 0 0 0 0 0 0 0 0 0 0 0 0 0 0 0 0 0 0 0 0 0

GFSGL_con_mlcape_021.txt.gz
CAPE
2822 2938 2792 2889 2715 2951 2509 2431 2247 1441 1051 709 871 622 387 484 218 353 298 228 96 139 75 33 40 73 8 6 26 24 19 23 27 27 38 30 94 53 59 84 60 37 32
2592 3036 2961 2939 2599 2571 2698 2541 2683 1857 1404 854 888 651 468 290 52 5 146 126 30 69 153 133 109 40 123 182 78 54 16 31 4 9 21 13 52 66 118 117 47 41 29
2512 2683 3025 3036 2770 2474 2780 2658 2718 2252 1377 908 887 630 366 212 33 16 71 106 132 151 161 152 170 148 158 139 201 176 66 89 58 37 36 0 12 13 33 57 68 34 41
2104 2289 2684 3139 3039 2753 2717 2810 2893 2204 1421 904 810 649 260 262 12 41 21 173 176 241 175 198 209 256 289 315 254 307 182 110 88 66 50 47 21 19 28 42 23 13 8
2343 2535 2791 3180 3124 3016 2552 2715 2808 2013 1471 938 604 466 275 86 12 6 45 160 350 334 148 366 411 429 371 267 217 78 122 83 76 63 36 27 19 42 68 48 6 4 25
2700 2743 2990 3416 3173 3057 2837 2522 2591 2034 1123 894 678 176 215 0 0 2 78 33 211 232 359 472 535 447 278 207 111 51 38 39 96 106 45 0 22 50 38 15 14 16 12
2789 2918 3154 3469 3422 3277 2967 2677 2462 1760 1168 656 361 288 0 14 0 0 0 16 88 244 423 660 535 378 260 231 179 95 59 23 1 0 36 71 34 50 0 1 1 4 0
2935 3119 3270 3531 3553 3305 2799 2571 2203 1546 1274 817 496 107 17 321 24 0 0 15 129 187 241 777 629 664 771 380 199 254 316 286 121 32 46 96 79 7 3 0 0 0 1
3072 3232 3318 3383 3581 3143 2567 2297 1868 1541 1284 1018 520 162 131 367 52 0 0 41 87 353 698 790 817 660 380 147 92 114 169 140 98 57 26 5 0 0 0 0 0 5 7
3138 3121 3317 3392 3232 2855 2531 2204 1821 1602 1224 999 646 459 305 385 383 14 11 210 45 195 585 781 487 334 37 35 22 58 146 157 53 47 25 1 0 0 0 0 11 27 22
2533 2707 2998 2969 2945 2700 2094 1965 1569 1272 1034 816 677 545 317 687 659 240 19 259 40 152 573 425 135 56 11 0 0 0 25 3 10 0 0 1 19 3 5 36 49 23 11
2573 2763 2977 2924 2630 2467 2140 1909 1348 1179 804 712 514 498 671 888 692 175 65 51 263 452 297 159 169 9 0 0 0 0 0 0 0 0 8 13 0 0 0 0 0 0 0
2854 2969 2916 2622 2356 2074 1888 1220 931 856 811 616 783 893 962 895 732 102 5 0 0 8 24 5 13 0 0 0 0 0 0 0 0 14 7 0 0 0 0 0 0 1 1
2986 2360 1932 1709 1650 1346 1098 989 791 729 920 1187 1117 985 905 872 598 139 17 0 0 0 0 1 0 0 0 0 0 0 0 1 11 0 0 0 0 0 0 0 0 0 0
1960 1545 1331 1160 1200 870 228 591 1095 206 578 1012 942 649 559 417 329 1 0 0 6 18 89 58 8 0 6 6 12 14 5 10 6 0 0 0 0 0 0 0 0 0 0
1818 1669 1448 1052 958 779 497 38 0 0 0 0 0 14 0 64 0 0 0 0 0 0 13 6 0 17 16 16 27 26 14 10 1 0 0 0 0 0 0 0 0 0 0
1538 1494 1046 920 845 818 581 417 162 0 0 0 0 0 0 0 0 0 0 0 0 0 0 0 0 15 12 9 10 20 8 4 0 0 0 0 0 0 0 0 0 0 0
1163 769 716 680 540 403 202 112 17 0 0 0 0 0 0 0 0 0 0 0 0 0 0 0 11 8 10 8 7 3 2 0 0 0 0 0 0 0 0 0 0 0 0
785 585 600 463 358 124 72 2 18 10 11 0 0 0 0 0 0 0 0 0 0 1 3 1 1 2 2 2 0 0 0 0 0 0 0 0 0 0 0 0 0 0 0
360 197 171 138 40 2 0 0 9 63 39 6 0 0 0 0 0 0 0 0 0 0 0 0 0 0 0 0 0 0 0 0 0 0 0 0 0 0 0 0 0 0 0
24 0 0 42 38 67 36 38 82 143 186 75 21 0 0 0 0 0 0 5 0 0 0 0 0 0 0 0 0 0 0 0 0 0 0 0 0 0 0 0 0 0 0
87 24 11 86 78 43 26 53 90 130 135 120 29 4 0 0 23 6 0 7 5 2 0 0 0 0 0 0 0 0 0 0 0 0 0 0 0 0 0 0 0 0 0
93 70 45 99 111 49 67 105 130 141 149 59 25 3 6 34 1 12 1 1 4 7 7 3 0 0 0 0 0 0 0 0 0 0 0 0 0 0 0 0 0 0 0
91 88 50 63 109 130 95 98 148 84 139 104 39 47 73 22 9 9 5 1 0 3 3 6 0 0 0 0 0 0 0 0 0 0 0 0 0 0 0 0 0 0 0
32 48 39 35 60 89 67 68 90 44 32 53 83 27 32 12 11 13 16 12 1 4 5 11 2 0 0 0 0 0 0 0 0 0 0 0 0 0 0 0 0 0 0
31 26 29 36 44 46 18 20 18 27 19 11 10 14 8 6 6 16 18 16 5 5 13 15 3 0 0 0 0 0 0 0 0 0 0 0 0 0 0 0 0 0 0

GFSGL_con_mlcape_024.txt.gz
CAPE
3516 3525 3508 3505 3479 2751 2541 2169 2215 1455 1031 1530 1479 1120 752 641 600 378 173 305 197 124 50 28 78 135 31 2 127 77 18 20 18 23 44 31 30 34 47 31 43 33 9
3361 3382 3566 3592 3543 3400 2462 2897 2592 2266 1940 1134 1262 1023 891 664 605 377 71 278 215 193 229 125 142 197 122 37 57 38 62 15 0 4 13 44 68 58 64 46 30 41 35
3085 3225 3545 3459 3395 3296 3246 2502 2848 2586 2020 1161 1409 1103 1038 671 587 334 434 410 10 3 85 200 209 119 126 64 190 83 145 138 103 57 45 98 40 70 14 23 47 54 37
2830 2983 3122 3371 3287 3191 3217 3167 2868 2990 2411 1815 1381 1300 1113 919 608 315 471 539 206 153 388 271 202 254 273 142 237 142 134 55 41 92 10 13 26 37 29 15 6 17 4
2414 2858 3139 3440 3480 3410 3054 3257 2974 3281 2866 2258 1480 1454 1345 937 737 411 222 512 496 254 446 381 346 425 462 424 229 193 150 48 52 26 43 38 19 1 0 0 0 0 0
1914 2680 2960 3310 3703 3580 3314 3106 3270 3168 3107 2527 1729 1462 1299 925 468 138 190 549 446 354 380 313 102 547 413 201 108 99 101 78 55 3 13 81 62 51 27 12 0 0 0
2329 2571 2842 3136 3579 3708 3618 3193 3252 3111 3063 2479 1803 1519 1247 929 211 0 35 410 372 439 594 347 499 483 395 645 375 174 66 66 20 19 21 19 48 38 43 0 0 0 0
2481 3045 3154 3448 3796 3832 3615 3434 3065 3294 3109 2253 1877 1415 1081 704 34 0 0 18 131 320 366 488 469 549 532 524 371 249 102 183 149 72 16 24 58 78 28 0 0 0 0
2970 3449 3463 3888 4180 3930 3780 3530 3434 3161 2917 2271 1538 1127 806 354 14 31 0 0 0 99 420 455 678 606 851 529 310 44 96 157 162 103 81 84 108 0 0 0 0 0 0
3346 3221 3869 4300 4189 4111 3971 3755 3435 2991 2399 2079 1713 1222 786 377 173 191 11 61 84 190 360 277 305 637 479 254 48 134 130 67 218 103 51 3 0 0 1 7 9 6 5
3697 3716 4001 3961 4204 4278 3794 3268 2925 2421 2027 1820 1449 1022 685 429 367 172 139 229 170 356 285 351 476 409 138 15 8 33 45 0 5 13 0 0 0 6 45 83 28 9 15
3763 3794 3956 4065 3955 3674 3180 2639 2444 2110 1758 1495 1175 905 709 655 499 203 119 78 305 369 367 451 246 93 8 2 0 0 0 0 0 0 0 0 20 0 0 0 0 0 0
3445 3608 3739 3697 3284 3087 2645 2215 1999 1702 1186 1003 875 703 611 860 820 418 131 15 0 282 255 22 0 0 0 0 0 0 0 0 0 0 0 0 0 0 0 0 0 0 0
3615 3597 3180 2690 2415 2179 1749 1462 1289 1128 995 833 793 884 1002 872 670 167 64 7 0 0 0 0 0 0 0 0 0 0 0 0 5 7 0 0 0 0 0 0 0 0 0
2816 2559 2353 1979 1779 1000 393 666 984 426 632 966 1238 966 945 950 788 402 362 33 2 0 0 0 0 0 0 0 0 5 13 13 11 21 1 0 0 0 0 0 0 0 0
1997 1743 1536 1490 987 489 292 88 0 0 0 1 21 297 59 320 62 0 0 0 0 0 0 203 151 65 85 107 45 30 34 26 20 3 0 0 0 0 0 0 0 0 0
1696 1563 1228 1217 1066 863 634 342 20 0 0 0 0 0 0 0 0 0 0 0 0 0 19 3 0 0 14 11 14 18 26 5 0 0 0 0 0 0 0 0 0 0 0
1800 1270 1334 1068 997 1079 784 713 189 0 0 0 0 0 0 0 0 0 0 0 0 0 0 0 0 12 5 7 1 1 0 0 0 0 0 0 0 0 0 0 0 0 0
1054 943 1060 935 749 572 376 290 110 6 0 0 0 0 0 0 0 0 0 0 0 0 2 5 1 0 0 0 0 0 0 0 0 0 0 0 0 0 0 0 0 0 0
610 646 705 441 108 156 52 2 3 14 5 0 0 0 0 0 0 0 0 0 0 0 0 0 0 0 0 0 0 0 0 0 0 0 0 0 0 0 0 0 0 0 0
367 112 3 125 35 25 20 0 27 66 37 17 2 0 0 0 0 0 0 0 0 0 0 0 0 0 0 0 0 0 0 0 0 0 0 0 0 0 0 0 0 0 0
72 98 37 66 72 90 39 32 59 108 146 95 36 0 0 0 2 1 0 4 4 0 0 0 0 0 0 0 0 0 0 0 0 0 0 0 0 0 0 0 0 0 0
67 45 24 34 40 31 24 92 72 21 53 46 22 0 0 0 23 17 3 5 1 0 0 0 0 0 0 0 0 0 0 0 0 0 0 0 0 0 0 0 0 0 0
45 4 44 79 71 101 72 76 89 35 44 41 1 0 3 16 42 13 12 1 2 0 0 0 0 0 0 0 0 0 0 0 0 0 0 0 0 0 0 0 0 0 0
53 49 60 80 54 88 22 55 40 52 61 55 42 18 32 43 25 15 11 4 6 2 0 0 1 0 0 0 0 0 0 0 0 0 0 0 0 0 0 0 0 0 0
12 5 17 41 46 48 56 31 26 38 35 36 42 32 26 30 28 14 11 8 5 1 1 3 1 0 0 0 0 0 0 0 0 0 0 0 0 0 0 0 0 0 0

GFSGL_con_mlcape_027.txt.gz
CAPE
2442 2231 2530 2460 2231 1800 1915 2169 1307 1516 990 797 928 753 542 439 252 276 227 36 126 39 38 14 62 45 13 21 64 28 8 0 0 0 33 25 20 6 15 9 0 0 0
2757 2621 2352 2626 2825 2215 1798 1938 1879 1293 1479 1317 975 902 660 364 376 325 232 76 100 167 55 14 0 85 22 5 12 9 7 33 0 0 13 27 41 22 32 6 0 6 0
2860 2908 2793 2632 2810 2697 2169 2039 1915 1825 1366 1405 1231 946 796 588 353 321 258 121 140 266 127 6 0 18 59 106 77 50 45 82 67 39 24 34 17 49 20 24 0 0 0
2936 2915 2849 2912 2848 2877 2985 2396 2458 2276 1973 1603 1308 1032 866 702 526 384 310 234 51 210 204 219 182 160 50 80 67 107 107 40 47 27 13 11 1 3 23 13 0 0 0
2761 2835 2736 2966 3115 3101 3042 3100 2336 2658 2438 2009 1493 1103 930 779 617 447 362 345 125 270 184 173 242 342 173 216 121 83 136 84 43 33 30 12 9 8 0 0 0 0 0
2454 2567 2820 2885 3237 3158 3090 3090 3093 2451 2747 2333 1789 1429 1149 1005 805 556 455 377 312 289 163 108 386 316 353 467 496 262 212 80 44 29 26 0 0 0 11 0 0 0 0
1842 2558 2731 2870 2997 3169 3216 3104 3136 2974 2882 2798 2310 1715 1440 1257 886 654 514 399 283 231 391 232 479 384 271 364 232 215 106 83 73 47 32 32 26 16 4 0 0 0 0
1685 2038 2566 2752 2909 3274 3386 3259 3118 3159 3028 2987 2611 2148 1737 1418 1029 616 503 258 274 450 518 583 583 426 46 190 346 340 335 209 54 66 41 47 44 52 61 43 27 0 0
1735 1990 2500 2807 2999 3336 3517 3481 3239 3184 3141 3085 2690 2287 1875 1269 899 498 152 1 48 149 233 369 567 293 89 294 132 24 45 45 216 192 171 67 52 116 129 15 1 7 0
1692 2143 2399 2803 3051 3407 3630 3580 3371 3212 3121 2821 2505 2119 1686 1140 564 266 0 0 0 0 1 23 87 367 238 163 32 85 63 40 65 59 32 24 19 0 0 2 13 14 6
2361 2629 3007 3151 3509 3756 3668 3608 3462 3151 2893 2652 2113 1639 1314 972 441 110 1 99 110 132 165 169 273 249 107 61 134 99 55 6 3 0 0 0 0 0 0 10 8 5 0
3360 3279 3733 3992 3996 3923 3767 3477 3058 2938 2782 2346 1829 1447 1115 828 549 189 134 184 247 325 189 324 223 212 144 81 16 0 0 0 0 0 0 0 0 0 0 0 0 0 0
3505 3799 4001 4071 4013 3661 3342 2827 2556 2223 1907 1583 1406 1217 1036 780 626 352 161 131 111 130 223 151 12 4 5 0 0 0 0 0 0 0 0 0 0 0 0 0 0 0 0
3774 3730 3239 3027 2900 2622 2157 2263 1904 1669 1447 1326 1138 1027 823 649 456 253 106 0 0 0 0 0 0 0 0 0 0 0 0 0 0 0 0 0 0 0 0 0 0 0 0
3124 2684 2286 1966 1680 1016 597 890 1290 680 996 1030 864 736 817 873 609 279 102 12 1 0 0 0 0 0 0 0 0 0 0 0 1 8 2 0 0 0 0 0 0 0 0
2338 2073 1478 1157 878 608 436 157 0 1 36 292 623 921 215 586 371 64 46 0 0 0 0 0 0 0 0 0 0 2 9 20 20 17 2 0 0 0 0 0 0 0 0
1769 1489 1114 763 624 576 478 332 173 0 0 0 0 1 200 167 72 0 0 0 0 0 0 0 37 0 0 0 6 28 24 36 32 0 0 0 0 0 0 0 0 0 0
1441 1222 1154 908 662 447 381 160 10 26 0 0 0 0 0 0 0 0 0 0 0 0 0 0 0 0 0 0 0 0 0 0 0 0 0 0 0 0 0 0 0 0 0
1114 1170 1150 921 843 659 411 49 4 0 0 0 0 0 0 0 0 0 0 0 0 0 0 0 0 0 0 0 0 0 0 0 0 0 0 0 0 0 0 0 0 0 0
869 980 1067 903 865 737 599 255 2 0 0 0 0 0 0 0 0 0 0 0 0 0 0 0 0 0 0 0 0 0 0 0 0 0 0 0 0 0 0 0 0 0 0
287 242 192 163 224 187 77 0 15 0 0 0 0 0 0 0 0 0 0 0 0 0 0 0 0 0 0 0 0 0 0 0 0 0 0 0 0 0 0 0 0 0 0
216 51 61 60 34 39 51 39 63 46 6 0 0 0 0 0 0 0 0 0 0 0 0 0 0 0 0 0 0 0 0 0 0 0 0 0 0 0 0 0 0 0 0
15 19 19 22 68 60 19 17 92 110 60 21 1 0 0 0 0 0 0 0 0 0 0 0 0 0 0 0 0 0 0 0 0 0 0 0 0 0 0 0 0 0 0
24 31 3 6 8 3 10 7 1 19 57 44 0 0 0 0 0 2 5 1 0 1 0 0 0 0 0 0 0 0 0 0 0 0 0 0 0 0 0 0 0 0 0
18 35 50 29 25 29 16 30 21 9 7 3 0 0 0 0 20 11 13 11 4 0 0 0 0 0 0 0 0 0 0 0 0 0 0 0 0 0 0 0 0 0 0
28 49 39 47 31 42 38 20 15 20 15 29 17 24 14 8 23 11 3 2 1 2 0 0 0 0 0 0 0 0 0 0 0 0 0 0 0 0 0 0 0 0 0

GFSGL_con_mlcape_030.txt.gz
CAPE
1257 1345 1366 1376 1159 1060 1697 1746 1326 712 581 391 476 369 266 200 35 29 21 42 4 0 8 4 0 0 1 0 1 0 0 0 0 0 0 0 0 0 0 0 0 0 0
1537 1565 1489 1546 1586 1269 1079 1554 1789 1345 729 574 568 548 429 330 186 16 25 41 19 0 1 32 0 0 3 5 2 10 7 4 0 0 0 9 8 0 0 0 6 0 0
1783 1765 1854 1880 1909 1722 1376 1385 1534 1833 1359 1082 804 644 544 514 374 189 84 39 34 1 5 12 1 0 10 15 11 5 26 24 24 9 3 8 14 41 16 2 4 10 0
2117 1886 1842 2017 2178 2103 1917 1604 1527 1609 1596 1321 1182 1044 858 535 511 439 236 123 114 53 25 76 52 17 5 10 37 92 61 54 47 39 29 11 10 24 6 0 0 0 0
2276 2344 2086 2070 2168 2426 2367 2080 1809 1698 1830 1565 1352 1212 1022 725 527 475 352 214 142 150 72 97 190 161 119 98 77 62 70 65 58 57 25 11 24 17 0 0 0 0 0
2341 2371 2493 2472 2391 2382 2552 2512 2177 2030 1905 1757 1449 1344 1166 961 757 562 474 335 274 234 112 5 81 185 197 179 253 127 50 51 31 36 38 2 2 0 0 0 2 0 0
2258 2448 2632 2686 2659 2632 2668 2709 2636 2329 2270 2098 1757 1553 1418 1304 905 711 623 495 464 397 307 69 125 257 331 455 303 41 152 148 124 28 9 0 0 0 0 0 0 0 0
2328 2484 2706 2691 2669 2811 2877 2772 2794 2738 2380 2393 2114 1916 1804 1629 1142 827 738 605 535 482 416 297 25 164 331 300 173 34 84 113 48 31 13 11 19 27 15 28 17 0 0
2270 2364 2549 2656 2612 2835 2839 2850 2826 2886 2678 2648 2430 2123 2002 1863 1369 1005 788 579 642 625 445 321 304 434 367 135 65 0 2 51 72 107 125 122 117 53 23 17 47 6 0
1705 2032 2422 2579 2627 2596 2865 2917 2901 2926 2856 2782 2630 2359 2332 2090 1560 1022 883 721 630 455 217 330 304 366 334 207 95 31 8 1 51 53 27 9 0 0 0 0 0 0 0
1460 1698 1874 2449 2592 2707 2960 3088 3006 2919 2866 2848 2542 2340 2093 1811 1290 1096 797 608 452 174 6 7 0 6 8 14 61 14 22 14 9 0 0 0 0 0 0 0 0 0 0
1213 1433 1818 2224 2608 2817 3069 3181 3005 2891 2788 2468 2022 2013 1556 1275 1196 508 271 127 5 0 1 40 204 99 39 71 61 30 22 1 0 0 0 0 0 0 0 0 0 0 0
1465 1530 1935 2328 2617 2993 3136 3096 2843 2441 2288 1864 1783 2090 1386 935 674 533 221 10 34 181 195 237 5 0 0 0 2 0 0 0 0 0 0 0 0 0 0 0 0 0 0
1977 2487 2909 2894 3021 3117 3042 2809 2395 1882 1573 1572 1709 1555 1099 913 672 270 61 0 0 31 1 0 0 0 0 0 0 0 0 0 0 0 0 0 0 0 0 0 0 0 0
3098 3078 3000 2687 2217 1447 902 1137 1310 735 964 1267 1296 999 895 739 525 304 177 54 8 12 0 0 0 0 0 0 0 0 0 0 0 0 0 0 0 0 0 0 0 0 0
2267 1997 1536 1023 626 329 439 113 5 0 163 645 552 551 237 449 339 204 96 8 0 0 0 0 0 0 0 0 0 0 0 0 0 0 0 0 0 0 0 0 0 0 0
1439 740 407 110 85 65 117 194 42 0 0 23 147 241 394 335 113 2 0 0 0 0 0 0 0 0 0 0 0 0 0 0 0 0 0 0 0 0 0 0 0 0 0
476 191 446 311 260 38 44 0 22 140 144 15 0 1 8 1 0 0 0 0 0 0 0 0 0 0 0 0 0 0 0 0 0 0 0 0 0 0 0 0 0 0 0
573 482 329 203 113 66 13 0 0 10 8 0 0 0 0 0 0 0 0 0 0 0 0 0 0 0 0 0 0 0 0 0 0 0 0 0 0 0 0 0 0 0 0
535 545 537 402 287 140 15 0 0 0 0 0 0 0 0 0 0 0 0 0 0 0 0 0 0 0 0 0 0 0 0 0 0 0 0 0 0 0 0 0 0 0 0
575 523 471 470 394 199 29 0 0 0 0 0 0 0 0 0 0 0 0 0 0 0 0 0 0 0 0 0 0 0 0 0 0 0 0 0 0 0 0 0 0 0 0
130 577 596 581 284 131 48 0 0 0 0 0 0 0 0 0 0 0 0 0 0 0 0 0 0 0 0 0 0 0 0 0 0 0 0 0 0 0 0 0 0 0 0
3 13 2 1 2 0 0 0 0 8 4 0 0 0 0 0 0 0 0 0 0 0 0 0 0 0 0 0 0 0 0 0 0 0 0 0 0 0 0 0 0 0 0
0 1 6 9 22 12 2 0 13 13 10 2 0 0 0 0 0 0 0 0 0 0 0 0 0 0 0 0 0 0 0 0 0 0 0 0 0 0 0 0 0 0 0
1 0 13 27 33 14 2 0 4 18 7 8 3 0 0 0 0 0 0 0 0 0 0 0 0 0 0 0 0 0 0 0 0 0 0 0 0 0 0 0 0 0 0
28 44 24 15 11 1 0 17 19 5 6 30 16 2 2 2 0 0 0 6 0 0 1 0 0 0 0 0 0 0 0 0 0 0 0 0 0 0 0 0 0 0 0

GFSGL_con_mlcape_033.txt.gz
CAPE
776 814 887 929 1024 1018 942 708 670 839 671 643 764 553 386 151 70 29 1 0 0 0 0 0 0 0 0 0 0 0 0 0 0 0 0 0 0 0 0 0 0 0 0
804 823 764 794 897 989 1105 999 830 800 797 620 587 448 355 188 65 67 54 2 0 0 0 0 0 0 0 1 12 15 1 0 0 0 1 2 5 0 0 0 0 0 0
755 940 962 944 976 887 957 1149 1080 1095 963 690 539 487 342 252 165 103 104 36 0 0 0 0 0 0 0 0 14 8 4 0 0 0 0 3 10 3 0 0 0 0 0
882 991 1041 1064 1048 1099 1050 1007 1124 1189 1334 1114 786 676 489 384 320 245 195 158 42 17 13 0 0 0 0 0 3 11 8 4 0 0 0 0 3 3 1 1 0 0 0
1035 1200 1166 1220 1162 1282 1301 1251 1150 1174 1260 1255 1173 812 686 588 569 406 327 306 173 106 59 30 1 1 11 15 10 0 3 5 14 15 9 6 4 16 19 4 0 0 0
1238 1306 1487 1482 1466 1514 1633 1639 1511 1384 1339 1144 1128 1239 1109 896 680 602 590 469 335 258 221 113 98 37 75 144 125 85 46 15 18 20 22 17 21 9 5 5 0 0 0
1474 1549 1656 1670 1600 1657 1909 2000 1843 1658 1529 1410 1190 1111 1069 1155 870 741 731 662 502 394 261 219 124 130 46 94 87 128 141 64 1 0 15 4 8 2 0 0 0 0 0
1574 1756 1968 1904 1789 1814 1905 2015 2111 1983 1762 1631 1396 1294 1183 1212 1003 804 780 792 629 537 472 360 319 233 57 32 107 130 213 77 0 1 17 29 5 1 2 3 2 3 0
1686 1884 2055 2184 2136 2148 2041 2018 2209 2282 2009 1925 1648 1438 1425 1291 975 905 947 783 750 729 585 500 494 393 158 6 178 143 31 3 1 2 20 22 38 32 2 0 1 1 0
1627 1819 2094 2182 2294 2295 2219 2219 2271 2359 2320 2019 1895 1756 1690 1601 1273 1155 996 903 969 935 814 753 554 402 152 108 309 66 0 0 0 0 0 0 0 0 0 0 0 0 0
1394 1781 2051 2314 2322 2281 2389 2475 2476 2455 2438 2195 2091 1988 1776 1831 1517 1128 873 1021 1271 1221 973 773 385 190 183 20 0 2 0 0 0 0 0 0 0 0 0 0 0 0 0
1260 1442 1922 2059 2314 2396 2377 2552 2608 2594 2551 2457 2465 2076 1863 1703 1453 921 896 1239 1020 971 776 538 142 34 0 0 0 0 0 0 0 0 0 0 0 0 0 0 0 0 0
921 1155 1249 1617 2045 2338 2436 2563 2664 2584 2549 2493 2192 1859 1502 1357 1084 989 755 742 561 448 118 1 0 1 0 0 0 0 0 0 0 0 0 0 0 0 0 0 0 0 0
678 803 1056 1214 1613 2165 2496 2603 2641 2511 2501 2135 1694 1294 999 944 821 414 361 194 76 40 1 0 0 0 0 0 0 0 0 0 0 0 0 0 0 0 0 0 0 0 0
997 894 1030 1283 1593 1865 1224 2010 2754 1899 2073 1321 971 611 80 318 312 158 250 119 66 16 0 0 0 0 0 0 0 0 0 0 0 0 0 0 0 0 0 0 0 0 0
2060 1692 1461 1160 695 483 494 418 59 523 509 436 517 50 0 47 182 132 113 82 2 0 0 0 0 0 0 0 0 0 0 0 0 0 0 0 0 0 0 0 0 0 0
1131 706 306 122 368 271 67 31 1 5 0 0 0 0 40 5 6 22 35 19 0 2 0 0 0 0 0 0 0 0 0 0 0 0 0 0 0 0 0 0 0 0 0
0 16 32 214 210 3 0 0 0 3 2 51 0 0 73 0 0 2 0 0 0 0 0 0 0 0 0 0 0 0 0 0 0 0 0 0 0 0 0 0 0 0 0
75 23 0 0 29 1 0 0 0 2 4 0 0 0 1 0 0 0 0 0 0 0 0 0 0 0 0 0 0 0 0 0 0 0 0 0 0 0 0 0 0 0 0
252 41 2 0 0 0 0 0 0 0 0 0 4 0 0 0 0 0 0 0 0 0 0 0 0 0 0 0 0 0 0 0 0 0 0 0 0 0 0 0 0 0 0
137 5 10 1 1 7 8 22 7 7 26 12 8 0 0 0 0 0 0 0 0 0 0 0 0 0 0 0 0 0 0 0 0 0 0 0 0 0 0 0 0 0 0
85 144 150 137 121 73 86 87 30 1 0 0 0 0 0 0 0 0 0 0 0 0 0 0 0 0 0 0 0 0 0 0 0 0 0 0 0 0 0 0 0 0 0
6 35 50 48 71 45 24 7 0 0 0 0 0 0 0 0 0 0 0 0 0 0 0 0 0 0 0 0 0 0 0 0 0 0 0 0 0 0 0 0 0 0 0
0 0 0 1 7 32 33 38 19 0 0 0 0 0 0 0 0 0 0 0 0 0 0 0 0 0 0 0 0 0 0 0 0 0 0 0 0 0 0 0 0 0 0
0 0 0 0 0 0 2 8 27 18 0 0 0 0 0 0 0 0 0 0 0 0 0 0 0 0 0 0 0 0 0 0 0 0 0 0 0 0 0 0 0 0 0
8 7 5 9 30 35 26 26 26 27 18 8 2 0 0 0 0 0 0 0 0 0 0 0 0 0 0 0 0 0 0 0 0 0 0 0 0 0 0 0 0 0 0

GFSGL_con_mlcape_036.txt.gz
CAPE
446 567 607 595 621 593 570 552 543 594 591 529 698 763 687 525 266 145 55 6 0 0 0 0 0 0 0 0 0 0 0 0 0 0 0 0 0 0 0 0 0 0 0
370 597 665 663 697 619 596 624 612 633 564 565 658 742 575 534 347 312 177 50 0 0 0 0 0 0 0 0 0 0 0 0 0 0 0 0 0 0 0 0 0 0 0
391 539 687 729 728 694 675 732 718 690 635 543 705 719 641 581 337 339 258 132 56 6 0 0 0 0 0 0 0 0 0 0 0 0 0 0 0 0 0 0 0 0 0
419 583 612 706 739 738 807 875 881 788 695 572 586 838 741 616 420 290 278 221 152 110 33 1 0 0 0 0 0 0 0 0 0 0 0 6 0 0 1 9 0 0 0
477 577 696 705 699 706 734 827 968 997 885 687 573 670 753 655 517 418 284 292 297 262 176 46 13 0 0 0 0 0 0 0 0 0 0 0 0 4 18 3 0 0 0
517 537 694 900 905 862 867 813 792 921 1057 993 758 666 779 781 626 451 421 389 397 397 401 264 46 16 0 0 2 3 0 0 0 0 6 10 6 15 4 0 0 0 2
579 646 767 892 989 1013 1033 1020 939 855 925 1085 1049 856 745 911 761 598 524 552 605 510 501 446 264 170 87 52 1 4 3 8 38 57 37 0 0 9 0 0 0 0 3
763 830 974 1061 1065 1174 1184 1199 1167 1092 1023 1069 1083 1117 1032 937 746 733 738 772 697 619 628 542 501 445 310 201 167 56 29 30 29 43 18 0 5 1 0 4 0 0 0
965 1055 1159 1309 1269 1278 1355 1424 1469 1470 1356 1261 1304 1200 1189 1170 847 744 688 820 688 757 650 576 612 557 431 207 242 100 20 18 1 2 12 1 0 0 1 0 0 0 0
1112 1195 1372 1406 1415 1379 1441 1541 1683 1731 1717 1616 1501 1405 1334 1346 998 839 674 817 809 779 746 671 558 638 408 245 271 107 12 42 0 0 0 0 0 0 0 0 0 0 0
984 1344 1493 1621 1618 1579 1611 1693 1733 1838 1976 1939 1850 1753 1440 1410 1357 923 715 891 899 912 994 930 841 580 393 131 165 157 172 3 0 0 0 0 0 0 0 0 0 0 0
953 1356 1602 1750 1883 2014 2042 2001 1914 1992 2109 2128 2086 1970 1669 1576 1361 825 846 957 1017 1238 1270 1030 917 439 124 32 20 29 0 0 0 0 0 0 0 0 0 0 0 0 0
938 1160 1641 1850 2027 2230 2334 2353 2319 2349 2316 2276 2283 2003 1849 1549 1124 729 827 833 937 1058 753 730 450 69 1 0 0 0 0 0 0 0 0 0 0 0 0 0 0 0 0
535 812 1111 1406 1937 2170 2282 2345 2461 2498 2487 2507 2351 2152 1782 1120 338 51 0 0 52 343 168 0 0 0 0 0 0 0 0 0 0 0 0 0 0 0 0 0 0 0 0
884 725 834 1033 778 615 402 815 1465 297 1528 2457 2369 2005 904 382 208 64 0 2 57 32 0 0 0 1 0 0 0 0 0 0 0 0 0 0 0 0 0 0 0 0 0
1440 1173 829 590 592 673 708 90 1 18 78 1 1 132 64 9 0 0 0 0 0 0 3 0 5 5 0 0 0 0 0 0 0 0 0 0 0 0 0 0 0 0 0
1185 966 696 548 354 319 176 1 0 0 0 0 0 0 0 0 11 0 0 0 0 0 14 3 0 0 0 0 0 0 0 0 0 0 0 0 0 0 0 0 0 0 0
929 601 263 335 240 55 1 0 0 0 0 0 0 0 0 0 0 0 0 1 0 0 11 0 0 0 0 0 0 0 0 0 0 0 0 0 0 0 0 0 0 0 0
14 120 95 1 0 0 0 0 0 0 0 0 0 0 0 0 0 2 3 2 1 0 0 0 0 0 0 0 0 0 0 0 0 0 0 0 0 0 0 0 0 0 0
3 0 0 2 0 0 0 0 0 0 1 0 0 0 5 5 2 3 1 1 0 0 0 0 0 0 0 0 0 0 0 0 0 0 0 0 0 0 0 0 0 0 0
23 5 1 0 0 0 0 0 0 2 0 0 0 3 2 0 0 0 0 0 0 0 0 0 0 0 0 0 0 0 0 0 0 0 0 0 0 0 0 0 0 0 0
51 6 14 0 0 0 0 0 0 0 0 0 0 1 0 0 0 0 0 0 0 0 0 0 0 0 0 0 0 0 0 0 0 0 0 0 0 0 0 0 0 0 0
45 0 0 0 4 0 0 0 0 0 0 0 0 3 6 0 0 0 0 0 0 0 0 0 0 0 0 0 0 0 0 0 0 0 0 0 0 0 0 0 0 0 0
0 10 34 52 35 6 0 0 0 0 0 0 1 4 4 4 0 0 0 0 0 0 0 0 0 0 0 0 0 0 0 0 0 0 0 0 0 0 0 0 0 0 0
0 0 14 1 0 0 1 0 1 2 0 0 1 0 0 0 0 0 0 0 0 0 0 0 0 0 0 0 0 0 0 0 0 0 0 0 0 0 0 0 0 0 0
19 3 2 4 3 6 16 12 26 8 1 0 0 1 0 0 0 0 0 0 0 0 0 0 0 0 0 0 0 0 0 0 0 0 0 0 0 0 0 0 0 0 0

GFSGL_con_mlcape_039.txt.gz
CAPE
630 683 728 809 908 936 965 968 1032 1050 1102 1200 1177 1240 1389 1282 1249 1070 688 449 231 139 51 32 10 22 0 0 0 0 0 0 0 0 0 0 0 9 1 26 2 0 0
582 688 761 859 954 944 911 995 1067 1007 1127 1199 1215 1177 1293 1251 1217 1155 888 540 415 275 190 22 3 0 0 6 0 0 0 0 0 31 0 0 0 16 39 51 19 0 0
702 735 909 947 1053 1041 1043 1105 1160 1086 1135 1171 1286 1202 1139 1343 1244 1144 1112 853 597 478 325 92 21 11 0 0 0 0 0 27 2 0 0 10 19 19 12 3 11 0 0
701 753 910 1026 1114 1163 1150 1205 1206 1203 1125 1109 1196 1279 1227 1240 1254 1141 1120 1046 875 678 460 325 159 78 10 39 25 2 85 46 47 32 10 6 37 41 12 11 22 29 4
708 753 855 1037 1230 1268 1254 1267 1290 1335 1167 1131 1103 1232 1275 1264 1250 1061 1093 1123 981 845 633 483 409 274 96 97 67 99 67 37 40 29 10 26 53 27 39 57 20 33 71
646 707 892 1196 1306 1230 1250 1284 1315 1351 1350 1242 1105 1135 1225 1170 1046 898 1112 1118 1055 965 862 708 619 355 98 12 0 102 200 79 99 21 0 34 162 86 29 51 7 35 64
634 812 1039 1228 1257 1302 1360 1394 1361 1390 1473 1374 1174 1190 1205 1298 808 635 764 1205 1161 1131 1064 972 907 717 317 231 13 2 6 46 113 399 149 284 373 73 2 29 60 59 98
754 938 1118 1234 1269 1384 1406 1337 1380 1429 1454 1519 1468 1263 1278 1390 929 621 597 1084 1325 1321 1228 1162 1151 1057 711 603 290 72 85 197 90 76 449 643 385 31 31 83 76 184 178
802 928 1032 1099 1221 1431 1438 1446 1517 1484 1452 1448 1628 1679 1468 1482 987 746 659 917 1328 1497 1363 1297 1263 1208 957 480 426 388 395 505 333 120 200 159 1 0 41 86 76 77 44
843 954 1142 1332 1290 1367 1433 1527 1746 1775 1661 1621 1567 1746 1734 1613 1248 764 750 1193 1267 1568 1481 1297 870 1070 794 419 574 712 763 563 352 48 19 0 0 0 0 39 30 7 0
939 1423 1577 1554 1545 1622 1702 1726 1734 1880 1956 1981 1939 1912 1996 1818 1875 889 686 1318 1552 1452 1288 1124 1009 624 540 239 313 698 733 613 200 119 0 0 0 0 0 0 0 0 0
1220 1504 1732 1860 1847 1830 1912 1846 1691 1893 1996 2002 1965 1325 398 1303 1488 774 573 807 1292 1216 1076 905 832 545 392 148 86 435 127 96 44 0 0 0 0 0 0 0 0 0 0
1003 1364 1725 2028 2145 2187 1928 1557 1115 1081 2101 2000 1920 606 828 2027 1760 945 716 602 652 713 488 541 413 262 140 90 31 22 0 2 0 0 0 0 0 0 0 0 0 0 0
1190 1424 1841 2071 2322 2492 2461 2470 2351 2366 2258 2273 2144 2401 2351 2259 1505 524 345 205 14 74 0 0 0 25 82 33 0 0 0 0 0 0 0 0 0 0 0 0 0 0 0
1046 1323 1599 1651 1506 1346 1329 1949 2333 1734 2368 2667 2671 2589 2480 1893 546 254 234 18 1 0 0 0 0 0 0 0 0 0 2 0 0 0 0 0 0 0 0 0 0 0 0
1002 844 756 820 942 1093 1022 679 1 112 498 954 1139 1187 576 210 2 1 0 0 0 0 0 20 0 38 23 0 0 0 2 0 0 0 0 0 0 0 0 0 0 0 0
988 828 678 738 851 691 470 408 93 0 0 0 0 0 0 0 0 0 0 0 0 0 0 0 20 28 6 0 0 0 0 0 0 0 0 0 0 0 0 0 0 0 0
836 815 849 810 830 645 258 117 0 0 0 0 0 0 0 0 0 0 0 0 0 2 5 0 0 24 3 1 0 0 0 0 0 0 0 0 0 0 0 0 0 0 0
458 408 625 595 336 107 3 0 0 0 0 0 0 0 0 0 0 0 0 2 1 8 3 2 2 1 0 0 0 0 0 0 0 0 0 0 0 0 0 0 0 0 0
133 50 170 49 4 17 100 46 77 29 3 1 0 0 0 0 0 0 1 1 3 5 1 11 10 1 0 0 0 0 0 0 0 0 0 0 0 0 0 0 0 0 0
17 5 0 82 55 31 3 0 0 1 0 1 0 0 0 1 0 2 2 3 3 1 3 7 1 0 0 0 0 0 0 0 0 0 0 0 0 0 0 0 0 0 0
88 29 21 1 1 2 4 5 5 1 0 0 0 3 0 4 5 3 5 6 6 3 0 0 0 0 0 0 0 0 0 0 0 0 0 0 0 0 0 0 0 0 0
230 226 185 59 2 1 4 3 1 1 2 1 4 3 1 0 2 1 0 0 0 0 0 0 0 0 0 0 0 0 0 0 0 0 0 0 0 0 0 0 0 0 0
60 93 31 36 30 19 1 0 0 0 1 1 1 0 0 0 0 0 0 0 0 0 0 0 0 0 0 0 0 0 0 0 0 0 0 0 0 0 0 0 0 0 0
6 0 0 8 27 18 37 2 0 0 0 0 1 1 0 0 0 0 0 0 0 0 0 0 0 0 0 0 0 0 0 0 0 0 0 0 0 0 0 0 0 0 0
5 0 0 0 1 4 2 0 0 0 0 0 0 0 0 26 15 7 1 0 0 0 0 0 0 0 0 0 0 0 0 0 0 0 0 0 0 0 0 0 0 0 0

GFSGL_con_mlcape_042.txt.gz
CAPE
1681 1802 1843 1895 1905 2026 1822 2021 2099 1985 2015 1842 1706 1767 1682 2146 2352 2271 1871 1382 1426 1129 492 220 442 101 0 0 0 0 0 0 0 0 0 12 77 86 11 36 67 52 2
1693 1917 1758 1834 1929 1829 1987 2000 2105 2107 2254 2189 2149 2034 1672 1879 2235 2301 2072 1463 1485 1233 904 440 382 301 236 57 6 10 0 0 0 0 0 0 73 87 180 301 86 0 0
1616 1663 1805 1821 1804 1781 1962 2045 2105 2131 2236 2139 2289 2285 2008 1700 2026 2202 2133 1931 1608 1463 1120 831 459 331 295 16 33 0 8 20 10 0 0 41 0 36 136 165 37 2 39
1309 1503 1747 1972 1786 1937 2044 2151 2205 2290 2368 2315 2356 2529 2363 2053 1780 1815 1958 2038 1977 1659 1443 1121 794 331 284 293 151 139 28 5 47 12 0 0 10 22 50 0 74 138 27
1379 1511 1706 1957 2163 2213 2153 2238 2348 2388 2421 2443 2398 2431 2394 2210 1669 1960 1997 1900 2173 2015 1736 1394 1026 723 335 387 158 244 216 140 0 56 21 0 0 25 71 0 56 24 66
1410 1536 1751 2046 2284 2265 2303 2284 2415 2404 2504 2534 2441 2433 2243 2081 1594 1193 1976 1949 2101 2210 2091 1686 1381 856 647 272 195 167 426 453 204 9 41 18 42 88 51 90 0 50 67
1352 1635 1839 2046 2255 2369 2387 2389 2523 2565 2561 2574 2457 2468 2452 2450 1586 1145 1138 1794 1966 2290 2289 2099 1715 1368 993 945 237 55 53 222 249 397 286 202 127 354 346 384 13 37 112
1499 1584 1950 2051 2160 2391 2462 2365 2515 2642 2584 2752 2647 2601 2607 2689 2051 1237 1054 1454 1952 2340 2369 2275 2127 1827 1577 1223 1155 496 193 239 200 170 464 617 633 667 618 330 192 203 149
1600 1601 1868 2098 2226 2357 2457 2447 2498 2473 2498 2520 2627 2617 2637 2687 2138 1491 1130 1462 1620 2120 2382 2449 2277 2162 1951 988 1139 1114 664 281 207 115 109 282 511 382 340 260 92 70 22
1545 1674 1951 2149 2320 2389 2536 2514 2463 2419 2375 2327 2445 2518 2613 2727 2494 1579 1083 1524 1586 1753 2243 2456 2006 2194 1882 999 913 895 548 366 405 332 133 65 96 62 0 110 17 19 31
1665 1845 2038 2212 2519 2428 2563 2571 2522 2433 2340 2344 2268 2182 2218 2482 2599 1813 1369 1561 1531 1799 1962 2191 2175 1410 1312 929 762 754 677 644 524 553 250 139 198 203 6 7 54 4 0
1717 1813 2105 2466 2359 2282 2567 2615 2579 2643 2527 2568 2419 2079 1687 2036 2121 1618 1089 1093 1480 1560 1899 1841 1975 1446 746 624 399 555 431 545 581 283 201 169 96 20 0 7 0 0 0
1901 2058 2357 2627 2644 2344 2725 2713 2628 2687 2379 2516 2547 2218 1577 2267 1886 845 13 4 811 1033 1649 1932 1466 643 175 80 1 200 310 411 395 213 141 77 3 7 1 0 0 0 0
1891 2269 2655 2921 2913 2754 2741 2812 2680 2562 2568 2430 2323 2329 1880 1526 1052 1080 481 357 620 670 127 313 235 19 1 0 0 112 217 203 237 192 165 95 24 3 0 0 0 0 0
2473 2701 2859 2933 2876 3090 2922 2196 2797 2674 1853 2285 2358 2338 2427 2460 2490 2167 1241 928 676 253 6 31 45 2 18 16 0 1 28 36 89 101 180 58 2 0 0 0 0 0 0
2431 2470 2494 2659 2871 2821 2504 1470 24 332 862 1391 2016 2469 2932 1758 2054 1827 1325 964 488 59 11 18 21 7 4 5 3 2 22 37 138 109 78 6 0 0 0 0 0 0 0
2147 1865 1743 1928 2095 2198 2057 1101 1409 326 17 45 26 70 472 944 996 604 104 5 0 0 2 3 1 3 6 3 4 2 29 55 40 20 5 0 0 0 0 0 0 0 0
1408 1210 1669 1796 1820 1597 1420 1110 689 360 157 0 0 0 0 0 0 0 0 0 1 0 2 0 3 4 6 6 2 1 17 13 11 1 0 0 0 0 0 0 0 0 0
1116 1001 1164 1083 1079 906 663 414 150 1 0 0 0 0 0 0 0 0 0 2 0 0 16 19 40 5 19 16 3 1 1 0 2 0 0 0 0 1 0 0 0 0 0
345 239 314 409 330 298 144 49 6 125 233 0 2 1 0 0 0 0 1 1 0 0 1 15 26 2 6 2 0 0 0 1 0 0 0 0 1 0 0 0 0 0 0
400 240 157 454 391 462 471 342 236 48 3 1 3 1 0 0 0 0 0 9 12 9 31 23 2 1 1 2 0 0 0 0 0 0 3 2 0 0 0 0 0 0 0
427 332 138 85 102 78 28 1 1 1 1 2 2 2 0 8 4 3 4 9 4 1 1 5 2 4 1 0 0 0 0 0 0 1 1 0 0 0 0 0 0 0 0
378 446 292 188 86 20 49 57 21 1 2 0 1 2 2 3 3 2 1 0 0 2 15 35 48 5 1 0 0 0 0 0 0 0 0 0 0 0 0 0 0 0 0
169 163 125 81 63 37 23 16 6 0 2 3 2 0 59 48 51 18 15 15 11 7 2 1 0 0 0 0 0 0 0 0 0 0 0 0 0 0 0 0 0 0 0
4 7 43 47 8 23 60 30 38 33 84 49 38 18 12 15 15 4 1 0 0 0 0 0 0 0 0 0 0 0 0 0 0 0 0 0 0 0 0 0 0 0 0
0 0 0 0 0 0 2 5 9 5 7 0 0 0 3 0 12 26 1 0 0 0 0 0 0 0 0 0 0 0 0 0 0 0 0 0 0 0 0 0 0 0 0

GFSGL_con_mlcape_045.txt.gz
CAPE
2859 2815 2988 3047 3048 3041 2492 2431 2321 2648 2760 1896 2162 1968 2134 2256 2461 2647 2315 1847 1964 1741 1346 1113 743 437 52 0 11 0 0 0 0 0 0 32 48 50 6 22 13 30 6
2701 2741 2945 3005 3072 2960 2933 2624 2779 2642 2807 3006 2155 2481 2358 2319 2439 2740 2585 1519 1990 1970 1642 1139 847 732 560 242 48 66 6 0 0 8 1 187 170 216 230 277 165 3 9
2456 2532 2776 2912 3050 2889 2907 3053 2941 2973 3004 2945 2897 2714 2635 2439 2372 2971 2831 2606 2056 2167 2001 1686 1156 908 1043 223 70 87 75 129 134 72 0 53 101 195 294 424 423 101 34
2183 2357 2549 3017 2894 2946 2909 3113 3030 3158 3116 3170 3130 2967 2977 2897 2488 2740 2831 2850 2565 2257 2300 2026 1612 1132 918 1106 698 313 488 268 242 240 76 0 129 201 131 126 345 243 200
2050 2340 2489 2836 3225 3194 2994 2901 3163 3157 3244 3293 3312 3262 3394 3177 2527 2465 2506 2817 2892 2675 2546 2438 2038 1591 1046 1074 774 647 345 461 105 240 253 125 15 51 251 227 90 44 259
1918 2149 2485 2756 3120 3320 3261 3111 3226 3240 3304 3374 3371 3385 3333 3224 2305 1881 2350 2529 2819 2914 2821 2700 2372 1660 1167 597 521 332 539 491 309 98 121 265 365 255 104 163 119 60 48
1801 2364 2391 2743 2922 3289 3464 3399 3243 3339 3442 3392 3497 3531 3406 3470 2659 1771 1673 2269 2608 2835 2908 2889 2813 2168 1515 1205 363 278 194 372 501 495 184 283 432 397 294 486 391 285 106
2188 1954 2687 2713 3007 3245 3451 3502 3547 3564 3535 3547 3573 3590 3571 3607 3185 2142 1499 1856 2210 2504 2720 2714 2892 2689 2056 1450 1344 489 339 203 266 285 576 593 401 716 909 754 583 513 360
2274 2393 2169 2926 3038 3406 3500 3645 3627 3576 3618 3623 3623 3629 3544 3598 3149 2664 1967 1806 2135 2232 2383 2566 2770 2888 2525 1461 1503 1336 674 412 228 205 137 248 442 437 647 717 286 268 134
2216 2516 2675 2926 3217 3311 3551 3675 3702 3632 3565 3335 3473 3583 3580 3614 3278 2447 2298 2539 2289 2156 2346 2399 2429 2782 2646 1675 1538 1540 1354 796 476 256 142 35 118 160 181 305 261 153 84
2044 2449 2955 3093 3367 3478 3583 3717 3705 3592 3136 3363 3303 3486 3642 3550 3640 2420 2051 2185 1691 1823 2174 2239 2440 2237 2240 1811 1429 1647 1519 1138 420 360 217 135 131 217 139 78 109 170 55
2151 2422 2874 3251 3242 3268 3749 3770 3757 3638 3495 3552 3404 3486 3417 3675 3247 2411 1990 1134 1706 2028 2093 2054 2258 1880 1946 1583 1335 1460 1044 609 334 277 287 276 237 162 213 154 82 116 50
2650 2760 2975 3351 3407 3205 3578 3856 3637 3630 3073 3124 3118 3066 2819 2876 3202 2603 1930 1358 900 1801 2411 2226 1812 1681 1209 1052 966 612 446 156 346 196 147 113 111 236 208 141 104 36 0
2897 3022 3287 3451 3610 3336 3336 3324 3215 3049 3151 2868 2892 2770 2870 2710 2595 2796 2720 1717 839 653 1222 1566 1475 1117 850 710 153 313 230 10 13 206 209 192 188 88 90 49 12 0 0
2642 2729 3003 3147 3258 3334 2853 2180 3026 2435 1926 3009 2827 2857 2728 2658 2530 2294 2188 2143 1531 754 491 610 390 375 433 341 116 57 13 33 47 61 333 244 134 56 21 5 0 0 0
2659 2645 2714 2842 3270 3250 2540 1431 69 183 375 494 565 1537 2504 1934 1789 2175 2465 2043 1434 1136 885 494 346 120 79 135 181 6 7 2 103 184 136 63 64 19 0 0 0 0 0
3085 2960 2779 2802 3119 3186 3347 2921 2596 206 2 276 134 82 39 26 130 190 140 160 243 414 693 208 47 4 2 4 3 3 4 38 131 106 127 56 31 0 0 0 0 0 0
2552 2313 2501 2472 2553 2581 2553 1974 2147 2151 1955 929 0 0 0 0 0 0 0 0 2 1 0 0 1 0 2 1 0 3 13 118 48 122 72 7 1 0 0 0 0 0 0
2003 2050 2125 2212 1988 1786 1541 1255 1002 810 467 139 0 0 0 0 0 0 0 1 1 0 0 0 0 0 0 0 2 10 18 47 58 26 0 0 0 0 0 0 0 0 0
777 758 1065 1087 909 990 873 689 466 550 433 255 134 149 0 0 0 1 0 6 8 9 16 63 34 15 12 2 6 18 10 12 6 11 5 6 0 0 1 1 0 0 0
457 529 632 685 694 704 674 569 363 338 418 215 107 2 0 0 2 2 0 9 9 10 11 26 9 2 10 19 4 0 1 33 1 1 0 0 0 1 1 9 3 0 0
437 404 408 333 247 198 163 51 40 33 28 1 0 0 0 0 5 9 3 11 9 11 37 19 9 5 4 1 0 0 1 0 0 0 0 2 10 4 5 0 0 0 0
127 205 199 154 112 167 129 86 29 42 37 24 1 0 0 2 4 4 0 1 5 38 9 5 1 0 0 0 1 4 5 5 6 13 19 11 3 0 0 0 0 0 0
11 29 46 65 56 46 83 74 15 2 6 1 19 37 45 29 22 32 100 41 61 59 18 12 12 19 8 10 16 6 2 3 1 1 0 0 0 0 0 0 0 0 0
0 0 0 9 11 23 6 0 23 60 39 58 6 1 1 17 40 22 52 46 52 46 56 63 39 23 6 1 0 0 0 0 0 0 0 0 0 0 0 0 0 0 0
0 0 0 0 0 0 0 0 0 0 0 0 0 3 8 2 0 0 3 10 26 23 17 8 5 0 0 0 0 0 0 0 0 0 0 0 0 0 0 0 0 0 0

GFSGL_con_mlcape_048.txt.gz
CAPE
2873 2978 2809 2875 2779 2113 1571 1936 1317 1574 1596 2311 2619 2564 2170 2204 2245 2749 2378 2367 2064 2023 1961 1508 1337 267 16 269 55 103 50 2 0 3 309 81 1 0 0 4 0 0 0
3090 3102 3110 3141 3220 2947 2215 1964 2246 2276 2371 2061 2615 2398 2361 2137 2503 2470 2655 2031 2362 2185 1787 1813 1792 1129 203 331 764 94 60 124 30 14 345 215 80 14 28 204 189 86 94
3003 3204 3212 3263 3326 3350 3198 2558 2533 2391 2655 2791 2969 2546 2402 2543 2313 2545 2775 2688 1885 2631 2377 1858 1511 1515 953 237 339 454 248 291 388 72 145 352 348 526 247 180 309 269 143
2472 3213 3274 3316 3418 3500 3473 3352 2860 2866 2634 2867 2956 3023 2955 2666 2620 2522 2625 2875 2879 2272 2701 2394 2061 1477 1145 952 283 74 303 379 143 211 150 26 300 362 426 381 370 370 219
2115 2615 3106 3163 3382 3440 3539 3532 3541 3188 3140 3006 3179 3190 2933 3033 2849 2612 2560 2995 3146 2980 2500 2669 2485 2139 1533 1117 1144 590 150 142 512 205 240 276 156 361 307 198 157 218 288
2290 2440 2926 3051 3191 3452 3427 3487 3447 3579 3411 3522 3419 3381 3309 3141 3044 2639 2589 2701 3132 3052 2936 2568 2689 2344 2012 1375 1037 1057 674 147 156 366 297 207 212 164 291 216 249 196 180
1984 2638 2844 3061 3202 3364 3607 3547 3479 3556 3641 3511 3632 3548 3408 3450 3015 2690 2373 2559 2676 2926 3026 2927 2692 2735 2254 1839 1167 894 645 539 285 187 116 197 266 309 239 266 302 224 175
2174 2332 2854 3133 3215 3458 3636 3742 3685 3563 3668 3702 3617 3644 3509 3568 3275 2783 2380 2376 2529 2681 2809 2948 2875 2723 2712 2253 1678 981 692 464 372 410 308 187 370 632 510 372 307 364 333
2339 2202 2446 3057 3234 3394 3657 3781 3893 3816 3745 3872 3852 3719 3696 3516 3399 3076 2615 2347 2355 2390 2644 2817 2938 2905 2770 2336 2004 1554 877 583 328 216 446 593 319 369 484 510 367 271 179
2183 2247 2703 2623 3244 3424 3596 3785 3977 4008 3853 3901 3905 3910 3786 3809 3688 3159 2862 3026 2537 2372 2427 2303 2350 2673 2789 2409 2168 1833 1606 1062 532 332 178 187 198 205 227 318 303 307 244
2220 2765 2678 2970 2734 3542 3734 3877 4002 4049 4021 3887 3908 3932 3989 3954 3988 3428 2787 3332 3114 2612 2213 1893 1954 2265 1998 2151 2136 2044 1795 1681 944 476 256 85 60 31 98 165 270 232 149
1954 2822 3104 3244 3014 3352 3727 3967 4132 4159 4062 3981 3915 3951 4010 4038 3848 3525 2886 2954 3231 3006 2568 2312 2138 2188 2068 1814 1578 2226 1808 1520 1391 481 190 51 16 46 12 54 53 96 182
2370 2562 3013 3313 3588 3329 3833 3934 4131 4190 4078 3996 3797 3905 3762 3791 3939 3463 2832 2582 2328 2466 2027 1826 1834 1864 1453 881 1296 1649 1667 1385 1001 439 218 87 0 9 8 82 81 122 102
2710 3063 3250 3467 3803 3758 3728 4090 4074 4005 4032 3789 3798 3503 3755 3682 3225 3725 2812 2270 2100 2160 2168 1931 2041 1740 1507 1294 809 415 724 1049 802 501 179 0 0 30 68 176 63 31 8
3689 3615 3677 3772 3803 3998 3025 3064 3913 2986 2724 3899 3499 3564 3267 3311 3092 2370 2401 2716 3006 2320 2148 1989 1944 1597 1246 1196 885 668 600 727 598 237 0 0 6 88 51 1 2 7 26
3550 3741 3448 3412 3815 3759 2426 1334 13 167 218 857 1614 2661 1238 1028 928 1368 1507 1491 1364 1850 1485 1396 1286 1097 857 677 449 383 400 482 276 4 3 8 21 1 2 0 0 0 0
3630 3149 3200 3037 3671 3538 2770 2064 1337 24 0 3 60 340 606 177 113 119 214 384 761 1301 1569 1164 842 420 120 45 27 40 45 4 39 17 37 25 2 0 0 0 0 0 0
3760 2987 3072 2770 3830 3396 3484 3090 2337 1637 1518 581 0 0 0 0 0 0 0 0 0 0 23 32 4 0 1 1 0 1 1 4 3 9 49 0 7 0 1 0 0 0 0
2988 2832 2990 2935 3062 3098 2567 2319 2274 2482 1920 161 0 0 0 0 0 0 0 0 0 1 0 0 0 0 0 0 0 0 0 1 7 13 0 0 0 0 0 0 0 0 0
2107 1946 2066 1818 1788 1658 1436 1239 1059 864 548 185 181 2 0 0 0 0 2 0 0 0 0 6 5 4 1 0 0 0 0 6 10 4 0 0 0 0 0 0 0 0 0
1141 1129 1168 1127 1063 984 901 730 731 646 539 524 105 0 0 8 14 11 0 0 0 1 0 4 1 3 0 0 0 1 0 0 0 4 0 0 0 0 0 2 0 0 0
746 709 754 738 728 652 559 505 437 331 160 24 0 0 0 0 1 6 2 3 1 1 20 8 2 3 2 1 0 0 0 2 0 0 0 0 3 5 13 8 4 0 0
409 215 240 159 115 18 5 0 0 25 29 13 0 0 0 12 11 5 5 0 8 4 18 12 4 2 3 8 2 0 1 0 0 2 0 0 0 8 4 0 0 0 0
0 0 0 3 16 8 0 23 20 28 52 39 38 39 58 76 77 40 32 11 4 14 1 3 1 0 0 1 0 0 1 1 3 2 2 10 20 3 0 0 0 0 0
0 0 0 0 0 0 0 0 0 0 0 0 0 0 0 0 0 0 113 125 128 131 81 47 41 29 4 4 2 10 0 3 21 18 2 0 1 0 0 0 0 0 0
0 0 0 0 0 0 0 0 0 0 0 1 0 0 0 0 0 1 0 0 0 0 24 71 96 79 61 76 4 0 0 0 0 0 0 0 0 0 0 0 0 0 0